Hourly Data Report for October 03, 2017

All times are specified in Local Standard Time (LST). Add 1 hour to adjust for Daylight Saving Time where and when it is observed.

KELOWNA UBCO
BRITISH COLUMBIA

49°56'26.700" N
119°24'00.760" W
456.00 m
1123996
71644
VKU

Download Data

Hourly Data (October 2017)
Hourly Data Report for October 3, 2017
Temp Definition
°C
Dew Point Temp Definition
°C
Rel Hum Definition
%
Wind Dir Definition
10's deg

Wind Spd Definition
km/h
Visibility Definition
km
Stn Press Definition
kPa
Hmdx Definition


Wind Chill Definition


Weather Definition


TIME
00:00 3.1 0.5 83       97.37     LegendNANA
01:00 2.6 0.8 88       97.42     LegendNANA
02:00 2.5 0.6 87       97.47     LegendNANA
03:00 2.4 0.8 89       97.48     LegendNANA
04:00 1.7 0.4 91       97.50     LegendNANA
05:00 1.7 0.4 91       97.51     LegendNANA
06:00 0.8 -0.3 92       97.52     LegendNANA
07:00 3.2 1.2 87       97.59     LegendNANA
08:00 6.1 1.9 74       97.62     LegendNANA
09:00 8.5 3.0 68       97.63     LegendNANA
10:00 10.7 2.6 57       97.59     LegendNANA
11:00 11.8 0.9 47       97.55     LegendNANA
12:00 12.5 -1.8 37       97.49     LegendNANA
13:00 14.7 -1.6 33       97.41     LegendNANA
14:00 14.9 -2.9 29       97.32     LegendNANA
15:00 15.8 -2.1 29       97.26     LegendNANA
16:00 15.8 -2.4 29       97.22     LegendNANA
17:00 13.9 -2.4 32       97.20     LegendNANA
18:00 12.5 -1.4 38       97.22     LegendNANA
19:00 10.0 -0.5 48       97.25     LegendNANA
20:00 7.7 -0.4 56       97.27     LegendNANA
21:00 5.8 -0.6 64       97.29     LegendNANA
22:00 4.6 -1.0 67       97.29     LegendNANA
23:00 3.2 -1.3 73       97.30     LegendNANA

Notes on Data Quality.

Legend

  • E = Estimated
  • M = Missing
  • NA = Not Available
  • ‡ = Partner data that is not subject to review by the National Climate Archives
Date modified: